Zurück zum Katalog

STARLINK-32929

AktivKommunikationVLEO
NORAD 63021·PAYLOAD·🇺🇸 United States

Gestartet Feb 15, 2025 von Cape Canaveral Space Force Station

Loading…

Nächste Überflüge (nächste 24 Stunden)

TLE

AktuellSource: CelesTrak SupGP

Epoche: Sep 14, 2026, 21:28 UTC

1 63021C 25032S   26257.89493056 -.00010406  00000+0 -37691-3 0  2578
2 63021  43.0030 347.6959 0001472 269.1126 120.0360 15.27582827    18

Verfolge STARLINK-32929 in Echtzeit mit AllMySat

Download on the App Store